Weather History for Erie, PA

Change the Weather History Date:

Thursday, January 17, 2013

  Actual Average Record
Temperature  
Mean Temperature 30 °F 27 °F  
Max Temperature 36 °F 34 °F 58 °F (1952)
Min Temperature 24 °F 21 °F -15 °F (1982)
Degree Days  
Heating Degree Days 35 38  
Month to date heating degree days 503 638  
Since 1 July heating degree days 2525 2806  
Cooling Degree Days 0 0  
Month to date cooling degree days 0 0  
Year to date cooling degree days 0 0  
Moisture  
Dew Point 24 °F    
Average Humidity 69    
Maximum Humidity 75    
Minimum Humidity 63    
Precipitation  
Precipitation 0.03 in 0.10 in 1.12 in (1932)
Month to date precipitation 0.56 1.74  
Year to date precipitation 0.56 1.74  
Snow  
Snow 0.30 in 1.00 in - ()
Month to date snowfall 1.3 17.3  
Since 1 July snowfall 24.8 53.5  
Snow Depth 0.00 in    
Sea Level Pressure  
Sea Level Pressure 30.11 in    
Wind  
Wind Speed 10 mph (WNW)    
Max Wind Speed 22 mph    
Max Gust Speed 31 mph    
Visibility 8 miles    
Events Fog , Snow    
T = Trace of Precipitation, MM = Missing Value Source: NWS Daily Summary

Daily Weather History Graph

Daily Weather History Graph

Search for Another Location

Airport:

Trip Planner

Search our weather history database for the weather conditions in past years. The results will help you decide how hot, cold, wet, or windy it might be!

Date:

Astronomy

Jan. 17, 2013 Rise Set
Actual Time 7:45 AM EST 5:16 PM EST
Civil Twilight 7:14 AM EST 5:47 PM EST
Nautical Twilight 6:40 AM EST 6:22 PM EST
Astronomical Twilight 6:06 AM EST 6:55 PM EST
Moon 10:43 AM EST (1/17) No Moon Set
Length of Visible Light 10h 33m
Length of Day
9h 31m
Waxing Crescent, 37% of the Moon is Illuminated
Jan 17
Waxing Crescent
Jan 18
First Quarter
Jan 26
Full
Feb 3
Last Quarter
Feb 10
New

Hourly Weather History & Observations

Time (EST) Temp. Windchill Dew Point Humidity Pressure Visibility Wind Dir Wind Speed Gust Speed Precip Events Conditions
12:21 AM 33.8 °F 23.2 °F 24.8 °F 70% 29.94 in 10.0 mi WSW 17.3 mph 28.8 mph N/A   Overcast
12:51 AM 34.0 °F 25.0 °F 24.1 °F 67% 29.98 in 10.0 mi WSW 12.7 mph 26.5 mph N/A   Overcast
1:51 AM 33.8 °F 23.5 °F 26.6 °F 75% 29.97 in 10.0 mi WSW 16.1 mph 29.9 mph N/A   Overcast
2:51 AM 35.1 °F 24.8 °F 26.1 °F 70% 30.01 in 10.0 mi West 17.3 mph 25.3 mph N/A   Overcast
3:51 AM 35.1 °F 26.4 °F 28.0 °F 76% 30.03 in 10.0 mi West 12.7 mph 20.7 mph N/A   Overcast
4:49 AM 35.6 °F 27.1 °F 28.4 °F 75% 30.02 in 10.0 mi West 12.7 mph 20.7 mph N/A   Overcast
4:51 AM 35.1 °F 26.9 °F 28.0 °F 76% 30.04 in 10.0 mi West 11.5 mph 19.6 mph N/A   Overcast
5:19 AM 35.6 °F 28.0 °F 28.4 °F 75% 30.02 in 10.0 mi West 10.4 mph 17.3 mph N/A   Overcast
5:26 AM 35.6 °F 27.5 °F 28.4 °F 75% 30.02 in 10.0 mi West 11.5 mph 17.3 mph N/A   Overcast
5:51 AM 36.0 °F 28.5 °F 26.1 °F 67% 30.04 in 10.0 mi West 10.4 mph 19.6 mph N/A   Overcast
6:51 AM 35.1 °F 27.4 °F 26.1 °F 70% 30.07 in 10.0 mi West 10.4 mph - N/A   Overcast
7:33 AM 35.6 °F 26.6 °F 24.8 °F 65% 30.07 in 10.0 mi NW 13.8 mph 21.9 mph N/A   Overcast
7:51 AM 35.1 °F 26.9 °F 24.1 °F 64% 30.10 in 10.0 mi WNW 11.5 mph 19.6 mph N/A   Overcast
8:15 AM 35.6 °F 28.6 °F 24.8 °F 65% 30.09 in 10.0 mi WNW 9.2 mph - N/A   Overcast
8:51 AM 35.1 °F 28.6 °F 24.1 °F 64% 30.13 in 10.0 mi WNW 8.1 mph 16.1 mph N/A   Overcast
9:51 AM 34.0 °F 29.8 °F 25.0 °F 70% 30.16 in 10.0 mi NNW 4.6 mph - N/A   Overcast
10:51 AM 34.0 °F 31.0 °F 26.1 °F 73% 30.16 in 10.0 mi Variable 3.5 mph - N/A   Overcast
11:51 AM 34.0 °F 28.8 °F 25.0 °F 70% 30.15 in 10.0 mi NW 5.8 mph - N/A   Overcast
12:51 PM 34.0 °F 28.0 °F 25.0 °F 70% 30.13 in 10.0 mi WNW 6.9 mph - N/A   Overcast
1:27 PM 33.8 °F 27.7 °F 24.8 °F 70% 30.10 in 10.0 mi WNW 6.9 mph - N/A   Overcast
1:51 PM 33.1 °F 26.1 °F 24.1 °F 70% 30.11 in 10.0 mi NNW 8.1 mph - N/A   Overcast
2:08 PM 33.8 °F 27.0 °F 24.8 °F 70% 30.08 in 10.0 mi NNW 8.1 mph - N/A   Scattered Clouds
2:51 PM 32.0 °F 24.8 °F 23.0 °F 69% 30.09 in 10.0 mi NNW 8.1 mph - N/A   Mostly Cloudy
3:38 PM 32.0 °F 24.8 °F 23.0 °F 69% 30.08 in 10.0 mi NNW 8.1 mph - N/A   Overcast
3:51 PM 32.0 °F 24.8 °F 21.9 °F 66% 30.12 in 10.0 mi NW 8.1 mph - N/A   Overcast
4:30 PM 32.0 °F 25.6 °F 21.2 °F 64% 30.10 in 10.0 mi NW 6.9 mph - N/A   Overcast
4:51 PM 30.9 °F 24.3 °F 21.0 °F 67% 30.14 in 10.0 mi WNW 6.9 mph - N/A   Overcast
5:40 PM 30.2 °F 24.3 °F 23.0 °F 75% 30.11 in 5.0 mi WNW 5.8 mph - 0.00 in Snow Light Snow
5:51 PM 30.9 °F 24.3 °F 21.9 °F 69% 30.14 in 7.0 mi WNW 6.9 mph - 0.01 in Snow Light Snow
6:16 PM 30.2 °F 26.7 °F 21.2 °F 69% 30.12 in 10.0 mi NW 3.5 mph - 0.00 in   Overcast
6:51 PM 30.0 °F - 23.0 °F 75% 30.15 in 10.0 mi Calm Calm - 0.00 in   Mostly Cloudy
7:42 PM 30.2 °F 23.4 °F 24.8 °F 80% 30.13 in 2.5 mi SW 6.9 mph - 0.00 in Snow Light Snow
7:49 PM 30.2 °F 25.4 °F 24.8 °F 80% 30.13 in 1.8 mi WSW 4.6 mph - 0.00 in Snow Light Snow
7:51 PM 30.2 °F 23.4 °F 24.8 °F 80% 30.13 in 1.5 mi SW 6.9 mph - N/A Snow Light Snow
8:13 PM 28.4 °F 19.7 °F 26.6 °F 93% 30.13 in 3.0 mi WSW 9.2 mph - 0.01 in Snow Light Snow
8:22 PM 28.4 °F 19.7 °F 24.8 °F 86% 30.14 in 6.0 mi WSW 9.2 mph - 0.01 in Snow Light Snow
8:26 PM 28.4 °F 18.0 °F 24.8 °F 86% 30.15 in 2.5 mi NW 12.7 mph - N/A Snow Light Snow
8:29 PM 28.4 °F 19.1 °F 24.8 °F 86% 30.15 in 0.8 mi NW 10.4 mph 18.4 mph 0.01 in Snow Light Snow
8:33 PM 28.4 °F 20.4 °F 26.6 °F 93% 30.14 in 0.5 mi NW 8.1 mph 18.4 mph 0.02 in Fog , Snow Snow
8:39 PM 28.4 °F 20.4 °F 26.6 °F 93% 30.15 in 1.2 mi NNW 8.1 mph 17.3 mph N/A Snow Light Snow
8:42 PM 28.4 °F 20.4 °F 24.8 °F 86% 30.15 in 4.0 mi NW 8.1 mph - 0.02 in Snow Light Snow
8:51 PM 28.4 °F 19.7 °F 23.0 °F 80% 30.14 in 9.0 mi WNW 9.2 mph 17.3 mph N/A   Overcast
9:17 PM 30.2 °F 18.9 °F 17.6 °F 60% 30.14 in 10.0 mi WNW 16.1 mph 26.5 mph N/A   Overcast
9:47 PM 28.4 °F 16.6 °F 19.4 °F 69% 30.15 in 6.0 mi NNW 16.1 mph 27.6 mph 0.00 in Snow Light Snow
9:51 PM 27.0 °F 15.2 °F 19.0 °F 72% 30.18 in 4.0 mi NNW 15.0 mph 29.9 mph 0.00 in Snow Light Snow
10:32 PM 26.6 °F 14.7 °F 15.8 °F 64% 30.16 in 10.0 mi NW 15.0 mph 27.6 mph 0.00 in   Overcast
10:51 PM 26.1 °F 12.7 °F 14.0 °F 60% 30.19 in 9.0 mi NW 18.4 mph 31.1 mph 0.00 in   Overcast
11:51 PM 24.1 °F 11.0 °F 16.0 °F 71% 30.22 in 9.0 mi NW 16.1 mph 28.8 mph 0.00 in   Overcast
11:59 PM 24.8 °F 12.4 °F 14.0 °F 64% 30.19 in 10.0 mi NW 15.0 mph 27.6 mph N/A   Overcast